Location: Asheville, NC
(35.6000°N, 82.5500°W)
Time: 17:37:55

RS-15 - Pass Details

Date: 13 March 2018
Orbit: 1888 x 2157 km, 64.8° (Epoch: 19 March)

Event Time Altitude Azimuth Distance (km) Brightness Sun altitude
Exits shadow 00:29:52 23° 40° (NE) 3,678 9.4 -53.6°
Drops below altitude 10° 00:33:17 10° 36° (NE) 4,605 10.1 -53.9°
Sets 00:36:41 0° 33° (NNE) 5,583 10.7 -54.2°
